Regional Weather Roundup
Issued by NWS

Home | Current Version | Previous Version | Text Only | Print | Product List | Glossary On
Versions: 1 2 3 4 5 6 7 8 9 10 11 12 13 14 15 16 17 18 19 20 21 22 23 24 25 26 27 28 29 30 31 32 33 34 35 36 37 38 39 40 41 42 43 44 45 46 47 48 49 50
000
ASUS43 KOAX 042210
RWRNE

WEATHER ROUNDUP FOR NEBRASKA
NATIONAL WEATHER SERVICE OMAHA NE
500 PM CDT TUE AUG 04 2015

NOTES: SATELLITE DATA IS BEING USED TO AUGMENT CLOUD COVER ABOVE
       12000 FEET.
       "FAIR" INDICATES FEW OR NO CLOUDS BELOW 12,000 FEET WITH NO
       SIGNIFICANT WEATHER AND/OR OBSTRUCTIONS TO VISIBILITY.

  * THESE STATIONS DO NOT REPORT WEATHER SUCH AS RAIN...SNOW OR FOG.

NEZ001>004-019>022-054>056-042300-
NEBRASKA PANHANDLE

CITY           SKY/WX    TMP DP  RH WIND       PRES   REMARKS
SCOTTSBLUFF    TSTM      64  60  87 E7        30.01R FOG
ALLIANCE       PTSUNNY   73  62  68 SE18      29.99F
CHADRON        PTSUNNY   83  61  47 S16       29.94F
KIMBALL        CLOUDY    71  58  64 E12       30.04S
SIDNEY         CLOUDY    74  58  57 E12       30.04F
$$

NEZ057>060-069>072-079>082-042300-
SOUTHWEST NEBRASKA

CITY           SKY/WX    TMP DP  RH WIND       PRES   REMARKS
NORTH PLATTE   LGT RAIN  67  64  90 E15       29.89F
IMPERIAL       CLOUDY    68  60  75 CALM      29.99S
LEXINGTON      RAIN      68  67  97 SW7       29.96R
MCCOOK         CLOUDY    63  62  97 SE5       29.97S
OGALLALA       CLOUDY    71  63  77 S7        29.99F
$$

NEZ005>010-023>029-035>040-094-042300-
NORTH CENTRAL NEBRASKA

CITY           SKY/WX    TMP DP  RH WIND       PRES   REMARKS
AINSWORTH      CLOUDY    76  66  69 E10       29.97S
BROKEN BOW     CLOUDY    73  64  73 S6        29.92F
O`NEILL        PTSUNNY   77  65  66 E10       29.97S
ORD            CLOUDY    80  66  62 SE6       29.91F
THEDFORD       CLOUDY    73  63  70 SE5       29.97R
$$

NEZ041-046>049-061>064-073>077-083>087-042300-
SOUTH CENTRAL NEBRASKA

CITY           SKY/WX    TMP DP  RH WIND       PRES   REMARKS
GRAND ISLAND   CLOUDY    81  69  67 SE10      29.92F
AURORA         CLOUDY    81  72  72 S12       29.92R
HASTINGS       CLOUDY    81  68  64 S10       29.95R
HEBRON         CLOUDY    78  64  62 S20G26    29.96R
HOLDREGE       TSTM      64  60  88 SW15G24   29.99F
KEARNEY *      CLOUDY    70  61  73 S23G37    29.97R THUNDER
YORK           PTSUNNY   82  72  69 S10       29.93R
$$

NEZ011>018-030>034-042>045-042300-
NORTHEAST NEBRASKA

CITY           SKY/WX    TMP DP  RH WIND       PRES   REMARKS
NORFOLK        PTSUNNY   77  63  61 E9        29.95F
ALBION         CLOUDY    74  65  74 NE12      29.96R
BLAIR          PTSUNNY   74  65  71 NE10      29.96S
COLUMBUS *     PTSUNNY   75  64  69 NE10      29.95R
FREMONT        PTSUNNY   78  66  66 NE8       29.96S
TEKAMAH        MOSUNNY   79  65  62 E8        29.96S
WAYNE          SUNNY     77  64  62 E6        29.98F
$$

NEZ050>053-065>068-078-088>093-042300-
SOUTHEAST NEBRASKA

CITY           SKY/WX    TMP DP  RH WIND       PRES   REMARKS
LINCOLN        MOSUNNY   87  67  51 S18G26    29.91S HX  90
OMAHA EPPLEY   PTSUNNY   78  68  71 NE10      29.95R
BEATRICE       MOSUNNY   83  71  67 S17       29.93R
FALLS CITY     PTSUNNY   81  73  76 SE10      29.93R
NEBRASKA CITY  SUNNY     82  66  57 S12       29.92F
PLATTSMOUTH    MOSUNNY   82  70  67 SE6       29.94R
$$

NEZ044-045-051>053-067-042300-
OMAHA AREA

CITY           SKY/WX    TMP DP  RH WIND       PRES   REMARKS
OMAHA EPPLEY   PTSUNNY   78  68  71 NE10      29.95R
BLAIR          PTSUNNY   74  65  71 NE10      29.96S
FREMONT        PTSUNNY   78  66  66 NE8       29.96S
MILLARD        PTSUNNY   74  67  78 NE5       29.95R
OFFUTT AFB     CLOUDY    78  70  77 N13       29.94R
PLATTSMOUTH    MOSUNNY   82  70  67 SE6       29.94R
WAHOO          FAIR      74  67  79 NE15      29.95S
$$



USA.gov is the U.S. government's official web portal to all federal, state and local government web resources and services.